Weather History for Burlington, CO

Change the Weather History Date:

Tuesday, October 29, 2013

  Actual Average Record
Temperature  
Mean Temperature 42 °F 46 °F  
Max Temperature 49 °F 60 °F 88 °F (1968)
Min Temperature 35 °F 31 °F 10 °F (1925)
Degree Days  
Heating Degree Days 24    
Moisture  
Dew Point 35 °F    
Average Humidity 92    
Maximum Humidity 100    
Minimum Humidity 63    
Precipitation  
Precipitation 0.00 in 0.02 in 0.99 in (2002)
Month to date precipitation 0.62 1.10  
Year to date precipitation 16.52 16.39  
Sea Level Pressure  
Sea Level Pressure 30.00 in    
Wind  
Wind Speed 8 mph (NNE)    
Max Wind Speed 13 mph    
Max Gust Speed -    
Visibility 4 miles    
Events Fog    
T = Trace of Precipitation, MM = Missing Value Source: NWS Daily Summary

Daily Weather History Graph

Daily Weather History Graph

Search for Another Location

Airport:

Trip Planner

Search our weather history database for the weather conditions in past years. The results will help you decide how hot, cold, wet, or windy it might be!

Date:

Astronomy

Oct. 29, 2013 Rise Set
Actual Time 7:13 AM MDT 5:51 PM MDT
Civil Twilight 6:46 AM MDT 6:18 PM MDT
Nautical Twilight 6:14 AM MDT 6:50 PM MDT
Astronomical Twilight 5:43 AM MDT 7:21 PM MDT
Moon 2:07 AM MDT (10/29) 3:04 PM MDT (10/29)
Length of Visible Light 11h 32m
Length of Day
10h 37m
Waning Crescent, 24% of the Moon is Illuminated
Oct 29
Waning Crescent
Nov 3
New
Nov 9
First Quarter
Nov 17
Full
Nov 25
Last Quarter

Hourly Weather History & Observations

Time (MDT) Temp. Windchill Dew Point Humidity Pressure Visibility Wind Dir Wind Speed Gust Speed Precip Events Conditions
12:53 AM 36.0 °F 29.0 °F 34.0 °F 93% 30.05 in 4.0 mi NNW 9.2 mph - N/A   Overcast
1:53 AM 36.0 °F 28.5 °F 34.0 °F 93% 30.04 in 2.5 mi NNW 10.4 mph - N/A   Overcast
2:09 AM 35.6 °F 29.2 °F 33.8 °F 93% 30.01 in 2.0 mi North 8.1 mph - N/A   Overcast
2:25 AM 35.6 °F 29.2 °F 35.6 °F 100% 30.02 in 1.8 mi North 8.1 mph - N/A   Overcast
2:53 AM 36.0 °F 29.6 °F 35.1 °F 97% 30.03 in 1.2 mi North 8.1 mph - N/A   Overcast
3:53 AM 36.0 °F 29.0 °F 35.1 °F 97% 30.02 in 0.8 mi North 9.2 mph - N/A   Mist
4:15 AM 35.6 °F 28.0 °F 35.6 °F 100% 29.98 in 1.2 mi NNE 10.4 mph - N/A   Overcast
4:29 AM 35.6 °F 28.0 °F 35.6 °F 100% 29.99 in 0.8 mi NE 10.4 mph - N/A   Mist
4:53 AM 36.0 °F 29.6 °F 35.1 °F 97% 30.02 in 0.8 mi NE 8.1 mph - N/A   Mist
5:16 AM 35.6 °F 29.2 °F 35.6 °F 100% 30.00 in 1.2 mi NE 8.1 mph - N/A   Overcast
5:50 AM 35.6 °F 28.6 °F 35.6 °F 100% 29.99 in 0.5 mi NE 9.2 mph - N/A Fog Fog
5:53 AM 36.0 °F 29.6 °F 35.1 °F 97% 30.01 in 0.5 mi NE 8.1 mph - N/A Fog Fog
6:32 AM 35.6 °F 30.7 °F 35.6 °F 100% 30.01 in 1.0 mi NE 5.8 mph - N/A   Mist
6:39 AM 35.6 °F 31.7 °F 35.6 °F 100% 30.00 in 0.8 mi NNE 4.6 mph - N/A   Mist
6:53 AM 35.1 °F 31.0 °F 35.1 °F 100% 30.01 in 0.8 mi NNE 4.6 mph - N/A   Mist
7:25 AM 35.6 °F 29.9 °F 33.8 °F 93% 29.99 in 1.5 mi NE 6.9 mph - N/A   Overcast
7:41 AM 35.6 °F 29.9 °F 35.6 °F 100% 29.98 in 0.5 mi NNE 6.9 mph - N/A Fog Fog
7:53 AM 36.0 °F 30.3 °F 35.1 °F 97% 30.01 in 0.5 mi NNE 6.9 mph - N/A Fog Fog
8:36 AM 35.6 °F 30.7 °F 35.6 °F 100% 30.02 in 1.0 mi North 5.8 mph - N/A   Overcast
8:51 AM 35.6 °F 29.9 °F 35.6 °F 100% 30.02 in 0.5 mi North 6.9 mph - N/A Fog Fog
8:53 AM 36.0 °F 31.1 °F 35.1 °F 97% 30.04 in 0.5 mi North 5.8 mph - N/A Fog Fog
9:04 AM 35.6 °F 29.9 °F 35.6 °F 100% 30.02 in 1.8 mi North 6.9 mph - N/A   Overcast
9:22 AM 35.6 °F 29.2 °F 35.6 °F 100% 30.02 in 0.5 mi North 8.1 mph - N/A Fog Fog
9:46 AM 35.6 °F 29.9 °F 35.6 °F 100% 30.03 in 2.0 mi North 6.9 mph - N/A   Overcast
9:53 AM 37.0 °F 31.6 °F 35.1 °F 93% 30.06 in 4.0 mi North 6.9 mph - N/A   Overcast
10:03 AM 35.6 °F 29.2 °F 35.6 °F 100% 30.03 in 2.5 mi North 8.1 mph - N/A   Overcast
10:13 AM 37.4 °F 31.4 °F 35.6 °F 93% 30.03 in 5.0 mi North 8.1 mph - N/A   Overcast
10:24 AM 37.4 °F 32.1 °F 35.6 °F 93% 30.02 in 1.5 mi North 6.9 mph - N/A   Overcast
10:34 AM 37.4 °F 30.8 °F 35.6 °F 93% 30.02 in 0.8 mi North 9.2 mph - N/A   Overcast
10:41 AM 35.6 °F 29.9 °F 35.6 °F 100% 30.02 in 2.0 mi North 6.9 mph - N/A   Overcast
10:53 AM 36.0 °F 29.0 °F 35.1 °F 97% 30.04 in 0.8 mi NNE 9.2 mph - N/A   Mist
11:17 AM 35.6 °F 29.9 °F 35.6 °F 100% 30.02 in 1.8 mi North 6.9 mph - N/A   Overcast
11:21 AM 37.4 °F 31.4 °F 35.6 °F 93% 30.02 in 3.0 mi North 8.1 mph - N/A   Overcast
11:53 AM 37.0 °F 33.3 °F 36.0 °F 96% 30.02 in 9.0 mi North 4.6 mph - N/A   Overcast
12:46 PM 39.2 °F 37.0 °F 35.6 °F 87% 29.98 in 10.0 mi NE 3.5 mph - N/A   Overcast
12:53 PM 41.0 °F 39.0 °F 36.0 °F 82% 29.98 in 10.0 mi NNE 3.5 mph - N/A   Overcast
1:40 PM 42.8 °F - 35.6 °F 76% 29.95 in 10.0 mi Calm Calm - N/A   Overcast
1:53 PM 42.1 °F - 36.0 °F 79% 29.95 in 10.0 mi Calm Calm - N/A   Overcast
2:53 PM 45.0 °F - 36.0 °F 71% 29.92 in 10.0 mi Calm Calm - N/A   Mostly Cloudy
3:03 PM 44.6 °F - 35.6 °F 71% 29.93 in 10.0 mi Calm Calm - N/A   Scattered Clouds
3:53 PM 48.0 °F - 36.0 °F 63% 29.92 in 10.0 mi North 3.5 mph - N/A   Clear
4:53 PM 44.1 °F 39.0 °F 36.0 °F 73% 29.93 in 10.0 mi NE 9.2 mph - N/A   Clear
5:53 PM 39.9 °F 34.5 °F 35.1 °F 83% 29.96 in 10.0 mi NE 8.1 mph - N/A   Mostly Cloudy
6:48 PM 39.2 °F 32.0 °F 35.6 °F 87% 29.96 in 10.0 mi NNE 11.5 mph - N/A   Overcast
6:53 PM 39.9 °F 32.9 °F 34.0 °F 79% 29.98 in 10.0 mi NNE 11.5 mph - N/A   Overcast
7:53 PM 39.0 °F 32.8 °F 35.1 °F 86% 30.00 in 10.0 mi ENE 9.2 mph - N/A   Overcast
8:53 PM 37.9 °F 30.9 °F 34.0 °F 86% 30.00 in 10.0 mi ENE 10.4 mph - N/A   Overcast
9:53 PM 37.0 °F 29.3 °F 33.1 °F 86% 29.99 in 10.0 mi ENE 11.5 mph - N/A   Overcast
10:53 PM 37.0 °F 28.9 °F 33.1 °F 86% 29.98 in 10.0 mi ENE 12.7 mph - N/A   Overcast
11:53 PM 36.0 °F 28.5 °F 32.0 °F 86% 29.96 in 10.0 mi ENE 10.4 mph - N/A   Overcast